EW9362 Weather Reports


Display with metric or nautical units.
time (UTC)temp
F
wind
direction
speed
MPH
gust
MPH
rain 1hr
in
rain 24hr
in
rain mn
in
humidity
%
barometer
mb
20260904195530 95 0 0.0 4.0 0.00 0.00 0.00 51 1014.3
20260904195031 95 350 1.0 4.0 0.00 0.00 0.00 50 1014.2
20260904194632 95 357 0.0 5.0 0.00 0.00 0.00 51 1014.5
20260904194031 95 73 0.0 5.0 0.00 0.00 0.00 50 1014.5
20260904193531 95 347 3.0 5.0 0.00 0.00 0.00 49 1014.5
20260904193100 96 0 1.0 5.0 0.00 0.00 0.00 48 1014.5
20260904192529 97 0 1.0 10.0 0.00 0.00 0.00 49 1014.6
20260904192029 95 117 1.0 10.0 0.00 0.00 0.00 49 1014.7
20260904191614 96 354 5.0 10.0 0.00 0.00 0.00 49 1014.9
20260904191029 95 51 2.0 10.0 0.00 0.00 0.00 50 1014.9
20260904190531 95 42 5.0 10.0 0.00 0.00 0.00 50 1015.0
20260904190100 96 354 1.0 8.0 0.00 0.00 0.00 49 1015.0
20260904185531 96 0 1.0 10.0 0.00 0.00 0.00 50 1015.0
20260904185029 95 0 3.0 10.0 0.00 0.00 0.00 49 1015.0
20260904184608 96 34 5.0 11.0 0.00 0.00 0.00 48 1015.1
20260904184030 96 13 4.0 11.0 0.00 0.00 0.00 48 1015.1
20260904183530 97 74 6.0 9.0 0.00 0.00 0.00 48 1015.3
20260904183057 98 6 1.0 6.0 0.00 0.00 0.00 45 1015.1
20260904182536 98 0 1.0 6.0 0.00 0.00 0.00 46 1015.2
20260904182032 97 0 0.0 6.0 0.00 0.00 0.00 46 1015.4
20260904181555 97 299 2.0 6.0 0.00 0.00 0.00 48 1015.5
20260904181029 96 32 2.0 6.0 0.00 0.00 0.00 48 1015.5
20260904180530 96 239 2.0 9.0 0.00 0.00 0.00 48 1015.6
20260904180100 96 61 2.0 9.0 0.00 0.00 0.00 46 1015.6
20260904175530 97 39 3.0 10.0 0.00 0.00 0.00 46 1015.6
20260904175029 97 60 0.0 10.0 0.00 0.00 0.00 45 1015.7
20260904174558 95 13 4.0 10.0 0.00 0.00 0.00 47 1015.9
20260904174030 96 352 2.0 8.0 0.00 0.00 0.00 47 1015.8
20260904173531 95 68 3.0 10.0 0.00 0.00 0.00 48 1015.9
20260904173104 95 344 4.0 10.0 0.00 0.00 0.00 49 1015.8
20260904172531 96 7 3.0 8.0 0.00 0.00 0.00 49 1015.9
20260904172034 95 357 4.0 8.0 0.00 0.00 0.00 50 1016.0
20260904171558 95 348 4.0 8.0 0.00 0.00 0.00 51 1016.1
20260904171031 96 354 1.0 7.0 0.00 0.00 0.00 51 1016.0
20260904170532 94 38 2.0 11.0 0.00 0.00 0.00 52 1016.0
20260904170057 95 21 2.0 11.0 0.00 0.00 0.00 52 1016.2
20260904165530 94 331 3.0 11.0 0.00 0.00 0.00 51 1016.1
20260904165030 94 34 2.0 8.0 0.00 0.00 0.00 51 1016.1
20260904164600 95 354 3.0 6.0 0.00 0.00 0.00 52 1016.2
20260904164034 95 337 3.0 6.0 0.00 0.00 0.00 53 1016.3
20260904163531 95 319 1.0 6.0 0.00 0.00 0.00 52 1016.1
20260904163104 94 330 2.0 8.0 0.00 0.00 0.00 52 1016.2
20260904162531 94 188 3.0 8.0 0.00 0.00 0.00 53 1016.3
20260904162032 94 328 3.0 8.0 0.00 0.00 0.00 55 1016.1
20260904161548 94 1 2.0 8.0 0.00 0.00 0.00 55 1016.2
20260904161032 93 338 3.0 9.0 0.00 0.00 0.00 55 1016.1
20260904160531 93 0 1.0 9.0 0.00 0.00 0.00 55 1016.2
20260904160101 93 333 2.0 7.0 0.00 0.00 0.00 56 1016.3
20260904155529 94 346 0.0 5.0 0.00 0.00 0.00 55 1016.3
20260904155029 93 326 2.0 5.0 0.00 0.00 0.00 58 1016.2
20260904154614 93 0 0.0 4.0 0.00 0.00 0.00 57 1016.2
20260904154029 92 114 0.0 4.0 0.00 0.00 0.00 60 1016.3
20260904153531 92 11 1.0 4.0 0.00 0.00 0.00 61 1016.3
20260904153056 91 65 2.0 6.0 0.00 0.00 0.00 60 1016.3
20260904152528 91 347 3.0 6.0 0.00 0.00 0.00 60 1016.3
20260904152030 92 360 0.0 3.0 0.00 0.00 0.00 61 1016.4
20260904151611 91 175 0.0 3.0 0.00 0.00 0.00 64 1016.4
20260904151033 90 36 1.0 3.0 0.00 0.00 0.00 63 1016.4
20260904150529 90 340 1.0 3.0 0.00 0.00 0.00 63 1016.5
20260904150057 89 0 0.0 5.0 0.00 0.00 0.00 64 1016.4
20260904145529 89 321 1.0 5.0 0.00 0.00 0.00 66 1016.5
20260904145030 89 316 3.0 5.0 0.00 0.00 0.00 65 1016.4
20260904144557 89 0 1.0 4.0 0.00 0.00 0.00 66 1016.4
20260904144030 88 357 3.0 4.0 0.00 0.00 0.00 65 1016.4
20260904143528 89 347 0.0 3.0 0.00 0.00 0.00 66 1016.4
20260904143053 89 0 0.0 3.0 0.00 0.00 0.00 66 1016.4
20260904142535 88 0 0.0 2.0 0.00 0.00 0.00 66 1016.3
20260904142030 88 0 0.0 3.0 0.00 0.00 0.00 67 1016.4
20260904141616 88 344 1.0 3.0 0.00 0.00 0.00 67 1016.4
20260904141031 89 43 0.0 2.0 0.00 0.00 0.00 66 1016.3
20260904140527 89 0 0.0 1.0 0.00 0.00 0.00 67 1016.3
20260904140108 89 0 0.0 1.0 0.00 0.00 0.00 70 1016.2
20260904135529 89 0 0.0 1.0 0.00 0.00 0.00 68 1016.2
20260904135029 88 0 0.0 1.0 0.00 0.00 0.00 68 1016.2
20260904134601 88 0 0.0 1.0 0.00 0.00 0.00 69 1016.2
20260904134030 87 0 0.0 0.0 0.00 0.00 0.00 70 1016.1
20260904133528 87 0 0.0 0.0 0.00 0.00 0.00 71 1016.3
20260904133102 86 0 0.0 0.0 0.00 0.00 0.00 73 1016.2
20260904132529 86 0 0.0 0.0 0.00 0.00 0.00 74 1016.2
20260904132027 85 0 0.0 0.0 0.00 0.00 0.00 75 1016.2
20260904131613 85 0 0.0 0.0 0.00 0.00 0.00 76 1016.1
20260904131028 84 0 0.0 3.0 0.00 0.00 0.00 76 1016.1
20260904130528 84 0 0.0 3.0 0.00 0.00 0.00 77 1016.0
20260904130056 83 174 0.0 2.0 0.00 0.00 0.00 78 1016.0
20260904125528 83 161 0.0 2.0 0.00 0.00 0.00 78 1016.0
20260904125032 82 155 0.0 2.0 0.00 0.00 0.00 80 1016.1
20260904124558 81 179 0.0 2.0 0.00 0.00 0.00 81 1016.0
20260904124029 81 174 0.0 2.0 0.00 0.00 0.00 81 1015.9
20260904123529 80 160 0.0 2.0 0.00 0.00 0.00 83 1015.9
20260904123049 79 0 0.0 2.0 0.00 0.00 0.00 86 1015.7
20260904122529 78 183 0.0 2.0 0.00 0.00 0.00 86 1015.7
20260904122030 78 184 0.0 2.0 0.00 0.00 0.00 87 1015.7
20260904121553 77 0 0.0 1.0 0.00 0.00 0.00 88 1015.6
20260904121029 77 0 0.0 0.0 0.00 0.00 0.00 89 1015.6
20260904120528 76 0 0.0 0.0 0.00 0.00 0.00 89 1015.7
20260904120057 76 0 0.0 0.0 0.00 0.00 0.00 90 1015.6
20260904115528 76 0 0.0 0.0 0.00 0.00 0.00 90 1015.5
20260904115032 76 0 0.0 0.0 0.00 0.00 0.00 90 1015.6
20260904114552 76 0 0.0 0.0 0.00 0.00 0.00 90 1015.5
20260904114028 76 0 0.0 0.0 0.00 0.00 0.00 91 1015.5
20260904113528 75 0 0.0 0.0 0.00 0.00 0.00 91 1015.6
20260904113100 75 0 0.0 0.0 0.00 0.00 0.00 91 1015.5
20260904112528 75 0 0.0 0.0 0.00 0.00 0.00 91 1015.3
20260904112033 75 0 0.0 0.0 0.00 0.00 0.00 91 1015.3
20260904111558 75 0 0.0 0.0 0.00 0.00 0.00 91 1015.3
20260904111030 75 0 0.0 0.0 0.00 0.00 0.00 91 1015.4
20260904110534 75 0 0.0 0.0 0.00 0.00 0.00 91 1015.3
20260904110058 75 0 0.0 0.0 0.00 0.00 0.00 91 1015.3
20260904105528 75 0 0.0 0.0 0.00 0.00 0.00 91 1015.1
20260904105030 75 0 0.0 0.0 0.00 0.00 0.00 91 1015.1
20260904104553 75 0 0.0 0.0 0.00 0.00 0.00 91 1015.1
20260904104031 75 0 0.0 0.0 0.00 0.00 0.00 91 1015.1
20260904103531 75 0 0.0 0.0 0.00 0.00 0.00 91 1015.1
20260904103051 75 0 0.0 0.0 0.00 0.00 0.00 91 1015.0
20260904102531 75 0 0.0 0.0 0.00 0.00 0.00 90 1014.9
20260904102028 75 0 0.0 0.0 0.00 0.00 0.00 90 1015.0
20260904101559 76 0 0.0 0.0 0.00 0.00 0.00 90 1014.9
20260904101028 76 0 0.0 0.0 0.00 0.00 0.00 90 1015.0
20260904100531 75 0 0.0 0.0 0.00 0.00 0.00 91 1015.0
20260904100104 75 0 0.0 0.0 0.00 0.00 0.00 90 1014.8
20260904095530 76 0 0.0 0.0 0.00 0.00 0.00 90 1014.8
20260904095029 76 0 0.0 0.0 0.00 0.00 0.00 90 1014.9
20260904094548 75 0 0.0 0.0 0.00 0.00 0.00 91 1014.9
20260904094028 75 0 0.0 0.0 0.00 0.00 0.00 91 1014.8
20260904093530 75 0 0.0 0.0 0.00 0.00 0.00 91 1014.7
20260904093058 75 0 0.0 0.0 0.00 0.00 0.00 90 1014.9
20260904092531 75 0 0.0 0.0 0.00 0.00 0.00 90 1014.9
20260904092029 76 0 0.0 0.0 0.00 0.00 0.00 90 1014.9
20260904091552 76 0 0.0 0.0 0.00 0.00 0.00 90 1014.9
20260904091030 76 0 0.0 0.0 0.00 0.00 0.00 90 1014.9
20260904090528 76 0 0.0 0.0 0.00 0.00 0.00 90 1015.0
20260904090051 76 0 0.0 0.0 0.00 0.00 0.00 90 1015.0
20260904085530 76 0 0.0 0.0 0.00 0.00 0.00 90 1015.0
20260904085028 76 0 0.0 0.0 0.00 0.00 0.00 90 1014.9
20260904084547 76 0 0.0 0.0 0.00 0.00 0.00 90 1014.7
20260904084029 76 0 0.0 0.0 0.00 0.00 0.00 89 1014.7
20260904083528 76 0 0.0 0.0 0.00 0.00 0.00 89 1014.9
20260904083053 76 0 0.0 0.0 0.00 0.00 0.00 89 1014.7
20260904082528 76 0 0.0 0.0 0.00 0.00 0.00 89 1014.8
20260904082028 76 0 0.0 0.0 0.00 0.00 0.00 89 1014.9
20260904081552 77 0 0.0 0.0 0.00 0.00 0.00 88 1014.9
20260904081029 77 0 0.0 0.0 0.00 0.00 0.00 88 1014.9
20260904080530 77 0 0.0 0.0 0.00 0.00 0.00 88 1014.7
20260904080107 77 0 0.0 0.0 0.00 0.00 0.00 87 1014.7
20260904075530 77 0 0.0 0.0 0.00 0.00 0.00 88 1014.7
20260904075031 77 0 0.0 0.0 0.00 0.00 0.00 87 1014.6
20260904074558 77 0 0.0 0.0 0.00 0.00 0.00 87 1014.6
20260904074030 77 0 0.0 0.0 0.00 0.00 0.00 87 1014.6
20260904073530 77 0 0.0 0.0 0.00 0.00 0.00 87 1014.6
20260904073054 77 0 0.0 0.0 0.00 0.00 0.00 86 1014.6
20260904072530 77 0 0.0 0.0 0.00 0.00 0.00 86 1014.5
20260904072029 78 0 0.0 0.0 0.00 0.00 0.00 86 1014.5
20260904071558 78 0 0.0 0.0 0.00 0.00 0.00 85 1014.5
20260904071030 78 0 0.0 0.0 0.00 0.00 0.00 85 1014.6
20260904070530 78 0 0.0 0.0 0.00 0.00 0.00 85 1014.6
20260904070100 78 0 0.0 0.0 0.00 0.00 0.00 84 1014.7
20260904065530 79 0 0.0 0.0 0.00 0.00 0.00 83 1014.7
20260904065027 79 0 0.0 0.0 0.00 0.00 0.00 83 1014.6
20260904064559 79 0 0.0 0.0 0.00 0.00 0.00 82 1014.7
20260904064028 80 0 0.0 0.0 0.00 0.00 0.00 82 1014.7
20260904063531 80 0 0.0 0.0 0.00 0.00 0.00 81 1014.6
20260904063054 81 0 0.0 2.0 0.00 0.00 0.00 79 1014.7
20260904062529 81 0 0.0 2.0 0.00 0.00 0.00 78 1014.8
20260904062027 81 0 0.0 2.0 0.00 0.00 0.00 78 1014.8
20260904061552 81 0 0.0 2.0 0.00 0.00 0.00 78 1015.0
20260904061030 82 0 0.0 3.0 0.00 0.00 0.00 77 1015.0
20260904060528 82 165 1.0 3.0 0.00 0.00 0.00 77 1014.9
20260904055529 82 160 1.0 4.0 0.00 0.00 0.00 77 1014.9
20260904055030 82 182 1.0 2.0 0.00 0.00 0.00 77 1014.9
20260904054559 82 158 1.0 4.0 0.00 0.00 0.00 77 1015.0
20260904054032 82 191 1.0 4.0 0.00 0.00 0.00 77 1015.0
20260904053527 82 158 0.0 3.0 0.00 0.00 0.00 77 1015.1
20260904053100 82 160 0.0 3.0 0.00 0.00 0.00 76 1015.1
20260904052530 82 0 1.0 3.0 0.00 0.00 0.00 76 1015.3
20260904052028 82 0 1.0 3.0 0.00 0.00 0.00 76 1015.2
20260904051553 82 0 1.0 3.0 0.00 0.00 0.00 76 1015.3
20260904051030 82 158 1.0 5.0 0.00 0.00 0.00 76 1015.2
20260904050528 82 160 1.0 5.0 0.00 0.00 0.00 75 1015.2
20260904050112 83 182 2.0 5.0 0.00 0.00 0.00 75 1015.2
20260904045528 83 190 2.0 4.0 0.00 0.00 0.00 75 1015.3
20260904045030 83 172 1.0 3.0 0.00 0.00 0.00 75 1015.3
20260904044554 83 162 1.0 2.0 0.00 0.00 0.00 75 1015.2
20260904044030 83 0 0.0 2.0 0.00 0.00 0.00 75 1015.0
20260904043530 83 167 0.0 2.0 0.00 0.00 0.00 75 1015.3
20260904043101 82 169 0.0 2.0 0.00 0.00 0.00 76 1015.2
20260904042531 83 0 0.0 2.0 0.00 0.00 0.00 75 1015.2
20260904042030 83 0 0.0 2.0 0.00 0.00 0.00 74 1015.2
20260904041608 83 0 0.0 2.0 0.00 0.00 0.00 73 1015.2
20260904041030 83 160 0.0 2.0 0.00 0.00 0.00 73 1015.3
20260904040529 83 0 0.0 1.0 0.00 0.00 0.00 73 1015.2
20260904040053 83 0 0.0 1.0 0.00 0.00 0.00 73 1015.3
20260904035531 83 0 0.0 1.0 0.00 0.00 0.00 73 1015.4
20260904035028 83 156 0.0 0.0 0.00 0.00 0.00 73 1015.4
20260904034556 83 0 0.0 0.0 0.00 0.00 0.00 73 1015.3
20260904034030 83 0 0.0 0.0 0.00 0.00 0.00 74 1015.4
20260904033532 83 0 0.0 0.0 0.00 0.00 0.00 74 1015.4
20260904033053 84 0 0.0 0.0 0.00 0.00 0.00 73 1015.4
20260904032528 84 0 0.0 1.0 0.00 0.00 0.00 72 1015.5
20260904032028 84 0 0.0 1.0 0.00 0.00 0.00 72 1015.5
20260904031552 84 163 0.0 2.0 0.00 0.00 0.00 71 1015.5
20260904031028 84 0 0.0 2.0 0.00 0.00 0.00 71 1015.5
20260904030528 84 166 0.0 2.0 0.00 0.00 0.00 70 1015.4
20260904030053 84 162 0.0 2.0 0.00 0.00 0.00 70 1015.5
20260904025529 84 153 0.0 1.0 0.00 0.00 0.00 70 1015.5
20260904025032 84 0 0.0 1.0 0.00 0.00 0.00 71 1015.6
20260904024606 84 0 0.0 2.0 0.00 0.00 0.00 71 1015.6
20260904024029 84 0 0.0 2.0 0.00 0.00 0.00 71 1015.6
20260904023536 84 154 0.0 2.0 0.00 0.00 0.00 70 1015.5
20260904023047 83 163 0.0 1.0 0.00 0.00 0.00 71 1015.6
20260904022528 83 0 0.0 0.0 0.00 0.00 0.00 73 1015.6
20260904022031 83 0 0.0 0.0 0.00 0.00 0.00 72 1015.6
20260904021554 83 0 0.0 0.0 0.00 0.00 0.00 72 1015.5
20260904021028 83 0 0.0 0.0 0.00 0.00 0.00 71 1015.4
20260904020529 83 0 0.0 0.0 0.00 0.00 0.00 71 1015.5
20260904020053 83 0 0.0 0.0 0.00 0.00 0.00 71 1015.5
20260904015528 84 0 0.0 0.0 0.00 0.00 0.00 71 1015.4
20260904015031 84 0 0.0 0.0 0.00 0.00 0.00 70 1015.5
20260904014558 84 0 0.0 0.0 0.00 0.00 0.00 70 1015.4
20260904014028 84 0 0.0 0.0 0.00 0.00 0.00 70 1015.5
20260904013527 84 0 0.0 0.0 0.00 0.00 0.00 69 1015.4
20260904013052 84 0 0.0 0.0 0.00 0.00 0.00 68 1015.3
20260904012531 85 0 0.0 0.0 0.00 0.00 0.00 69 1015.3
20260904012028 85 0 0.0 0.0 0.00 0.00 0.00 69 1015.2
20260904011608 85 0 0.0 0.0 0.00 0.00 0.00 68 1015.2
20260904011028 86 0 0.0 0.0 0.00 0.00 0.00 67 1015.2
20260904010527 86 0 0.0 0.0 0.00 0.00 0.00 66 1015.0
20260904010056 86 0 0.0 0.0 0.00 0.00 0.00 66 1015.0
20260904005528 86 0 0.0 0.0 0.00 0.00 0.00 65 1015.0
20260904005028 86 0 0.0 0.0 0.00 0.00 0.00 66 1015.1
20260904004548 87 0 0.0 0.0 0.00 0.00 0.00 64 1014.9
20260904004028 87 0 0.0 0.0 0.00 0.00 0.00 64 1014.7
20260904003528 87 0 0.0 0.0 0.00 0.00 0.00 64 1014.7
20260904003047 87 0 0.0 0.0 0.00 0.00 0.00 63 1014.5
20260904002529 88 0 0.0 0.0 0.00 0.00 0.00 63 1014.5
20260904002028 88 0 0.0 0.0 0.00 0.00 0.00 62 1014.4
20260904001546 89 0 0.0 0.0 0.00 0.00 0.00 60 1014.3
20260904001030 90 0 0.0 0.0 0.00 0.00 0.00 58 1014.1
20260904000528 91 0 0.0 0.0 0.00 0.00 0.00 56 1014.1
20260904000059 91 0 0.0 0.0 0.00 0.00 0.00 56 1014.2
20260903235530 92 0 0.0 0.0 0.00 0.00 0.00 54 1014.3
20260903235033 92 0 0.0 0.0 0.00 0.00 0.00 54 1014.3
20260903234553 93 0 0.0 0.0 0.00 0.00 0.00 53 1014.3
20260903234028 94 0 0.0 0.0 0.00 0.00 0.00 52 1014.3
20260903233531 94 0 0.0 0.0 0.00 0.00 0.00 51 1014.2
20260903233046 94 0 0.0 0.0 0.00 0.00 0.00 51 1014.1
20260903232529 94 0 0.0 0.0 0.00 0.00 0.00 51 1014.1
20260903232028 95 0 0.0 0.0 0.00 0.00 0.00 50 1014.2
20260903231610 95 0 0.0 1.0 0.00 0.00 0.00 48 1014.2
20260903231028 96 0 0.0 1.0 0.00 0.00 0.00 48 1014.1
20260903230529 97 0 0.0 3.0 0.00 0.00 0.00 47 1014.2
20260903230112 96 0 0.0 3.0 0.00 0.00 0.00 47 1014.1
20260903225533 96 77 0.0 3.0 0.00 0.00 0.00 48 1014.1
20260903225031 97 0 0.0 2.0 0.00 0.00 0.00 46 1014.1
20260903224554 97 0 0.0 2.0 0.00 0.00 0.00 46 1014.2
20260903224034 98 0 0.0 2.0 0.00 0.00 0.00 46 1014.2
20260903223529 97 0 0.0 2.0 0.00 0.00 0.00 45 1014.2
20260903223106 98 0 0.0 4.0 0.00 0.00 0.00 46 1014.2
20260903222531 97 0 0.0 4.0 0.00 0.00 0.00 46 1014.1
20260903222033 97 30 0.0 4.0 0.00 0.00 0.00 47 1014.1
20260903221602 97 327 1.0 4.0 0.00 0.00 0.00 46 1014.0
20260903221031 97 149 0.0 6.0 0.00 0.00 0.00 45 1014.1
20260903220534 98 77 0.0 7.0 0.00 0.00 0.00 45 1014.1
20260903220108 97 195 3.0 7.0 0.00 0.00 0.00 45 1014.1
20260903215530 98 114 0.0 5.0 0.00 0.00 0.00 44 1014.1
20260903215028 97 0 0.0 8.0 0.00 0.00 0.00 48 1014.1
20260903214557 96 21 3.0 8.0 0.00 0.00 0.00 46 1014.2
20260903214031 97 328 1.0 7.0 0.00 0.00 0.00 45 1014.2
20260903213532 97 0 0.0 7.0 0.00 0.00 0.00 45 1014.2
20260903213051 97 2 3.0 7.0 0.00 0.00 0.00 46 1014.2
20260903212528 98 13 1.0 6.0 0.00 0.00 0.00 44 1014.3
20260903212034 97 72 2.0 6.0 0.00 0.00 0.00 45 1014.3
20260903211615 98 21 1.0 4.0 0.00 0.00 0.00 44 1014.3
20260903211031 99 126 0.0 5.0 0.00 0.00 0.00 46 1014.3
20260903210536 99 0 1.0 5.0 0.00 0.00 0.00 45 1014.3
20260903210059 98 327 2.0 5.0 0.00 0.00 0.00 44 1014.5
20260903205531 99 176 1.0 5.0 0.00 0.00 0.00 43 1014.5
20260903205028 99 0 0.0 5.0 0.00 0.00 0.00 43 1014.5
20260903204600 99 0 0.0 5.0 0.00 0.00 0.00 43 1014.5
20260903204031 99 0 0.0 6.0 0.00 0.00 0.00 44 1014.6
20260903203533 99 150 0.0 6.0 0.00 0.00 0.00 42 1014.6
20260903203052 99 0 0.0 3.0 0.00 0.00 0.00 44 1014.7
20260903202534 99 200 0.0 8.0 0.00 0.00 0.00 45 1014.6
20260903202032 98 102 0.0 8.0 0.00 0.00 0.00 45 1014.6
20260903201548 97 347 2.0 6.0 0.00 0.00 0.00 44 1014.6
20260903201032 99 0 0.0 4.0 0.00 0.00 0.00 44 1014.7
20260903200531 99 0 0.0 7.0 0.00 0.00 0.00 43 1014.9
20260903200107 99 110 0.0 8.0 0.00 0.00 0.00 44 1015.1